Regional Weather Roundup
Issued by NWS

Home | Current Version | Previous Version | Graphics & Text | Print | Product List | Glossary On
Versions: 1 2 3 4 5 6 7 8 9 10 11 12 13 14 15 16 17 18 19 20 21 22 23 24 25 26 27 28 29 30 31 32 33 34 35 36 37 38 39 40 41 42 43 44 45 46 47 48 49 50
000
ASUS43 KOAX 280710
RWRNE

WEATHER ROUNDUP FOR NEBRASKA
NATIONAL WEATHER SERVICE OMAHA NE
100 AM CST FRI NOV 28 2014

NOTES: SATELLITE DATA IS BEING USED TO AUGMENT CLOUD COVER ABOVE
       12000 FEET.
       "FAIR" INDICATES FEW OR NO CLOUDS BELOW 12,000 FEET WITH NO
       SIGNIFICANT WEATHER AND/OR OBSTRUCTIONS TO VISIBILITY.

  * THESE STATIONS DO NOT REPORT WEATHER SUCH AS RAIN...SNOW OR FOG.

NEZ001>004-019>022-054>056-280800-
NEBRASKA PANHANDLE

CITY           SKY/WX    TMP DP  RH WIND       PRES   REMARKS
SCOTTSBLUFF    CLEAR     33  25  72 E3        29.95F
ALLIANCE       CLEAR     30  24  78 W9        29.93F WCI  22
KIMBALL        CLEAR     38  25  58 SW5       29.98F WCI  35
$$

NEZ057>060-069>072-079>082-280800-
SOUTHWEST NEBRASKA

CITY           SKY/WX    TMP DP  RH WIND       PRES   REMARKS
NORTH PLATTE   PTCLDY    21  18  88 NW7       29.95F WCI  12
IMPERIAL       CLEAR     39  26  59 W12       29.97F WCI  32
LEXINGTON      PTCLDY    21  17  83 CALM      29.94F
OGALLALA       CLEAR     29  27  93 W7        29.97S WCI  22
$$

NEZ005>010-023>029-035>040-094-280800-
NORTH CENTRAL NEBRASKA

CITY           SKY/WX    TMP DP  RH WIND       PRES   REMARKS
VALENTINE      PTCLDY    33  28  81 SW9       29.87S WCI  25
AINSWORTH      CLEAR     34  25  70 SW8       29.87S WCI  27
BROKEN BOW     CLEAR     21  15  78 CALM      29.91F
O`NEILL        CLEAR     29  21  72 S13       29.89F WCI  19
ORD            PTCLDY    21  16  81 SE3       29.93F
THEDFORD       CLEAR     37  29  73 W8        29.90F WCI  31
$$

NEZ041-046>049-061>064-073>077-083>087-280800-
SOUTH CENTRAL NEBRASKA

CITY           SKY/WX    TMP DP  RH WIND       PRES   REMARKS
GRAND ISLAND   PTCLDY    26  18  71 S9        29.96F WCI  17
AURORA         PTCLDY    29  19  64 S10       29.97F WCI  20
HASTINGS       PTCLDY    29  18  63 S6        29.96F WCI  23
HEBRON         CLEAR     32  18  55 S9        30.02F WCI  24
HOLDREGE       CLEAR     30  21  69 S6        29.94F WCI  24
KEARNEY *      CLEAR     25  18  74 S6        29.96F WCI  18
YORK           PTCLDY    27  19  74 S8        30.00S WCI  18
$$

NEZ011>018-030>034-042>045-280800-
NORTHEAST NEBRASKA

CITY           SKY/WX    TMP DP  RH WIND       PRES   REMARKS
NORFOLK        PTCLDY    24  17  74 SE9       29.96F WCI  14
ALBION         PTCLDY    21  17  83 SE6       29.96F WCI  13
BLAIR          CLEAR     27  20  76 S20G25    30.03F WCI  13
COLUMBUS *     PTCLDY    27  16  63 S7        30.02F WCI  19
FREMONT        CLEAR     27  21  79 SE12G18   30.03F WCI  16
TEKAMAH        CLEAR     22  16  78 SE13      30.05F WCI  10
WAYNE          PTCLDY    22  18  83 S17       29.97F WCI   8
$$

NEZ050>053-065>068-078-088>093-280800-
SOUTHEAST NEBRASKA

CITY           SKY/WX    TMP DP  RH WIND       PRES   REMARKS
LINCOLN        CLEAR     26  18  71 S5        30.05F WCI  20
OMAHA EPPLEY   CLEAR     26  19  74 SE17      30.09F WCI  13
BEATRICE       CLEAR     31  20  64 S14       30.03F WCI  21
FALLS CITY     CLEAR     28  22  78 SE14      30.11F WCI  17
NEBRASKA CITY  CLEAR     28  20  70 S15       30.07F WCI  17
PLATTSMOUTH    CLEAR     27  21  78 SE15      30.07F WCI  15
$$

NEZ044-045-051>053-067-280800-
OMAHA AREA

CITY           SKY/WX    TMP DP  RH WIND       PRES   REMARKS
OMAHA EPPLEY   CLEAR     26  19  74 SE17      30.09F WCI  13
BLAIR          CLEAR     27  20  76 S20G25    30.03F WCI  13
FREMONT        CLEAR     27  21  79 SE12G18   30.03F WCI  16
MILLARD        CLEAR     26  20  80 SE8       30.07F WCI  17
OFFUTT AFB     CLEAR     24  20  83 SE10      30.08F WCI  14
PLATTSMOUTH    CLEAR     27  21  78 SE15      30.07F WCI  15
WAHOO          FAIR      24  19  82 SE8       30.04F WCI  14
$$


USA.gov is the U.S. government's official web portal to all federal, state and local government web resources and services.